Regional Weather Roundup
Issued by NWS

Home | Current Version | Previous Version | Text Only | Print | Product List | Glossary On
Versions: 1 2 3 4 5 6 7 8 9 10 11 12 13 14 15 16 17 18 19 20 21 22 23 24 25 26 27 28 29 30 31 32 33 34 35 36 37 38 39 40 41 42 43 44 45 46 47 48 49 50
000
ASUS43 KOAX 261802
RWRNE

WEATHER ROUNDUP FOR NEBRASKA
NATIONAL WEATHER SERVICE OMAHA NE
100 PM CDT THU MAR 26 2015

NOTES: SATELLITE DATA IS BEING USED TO AUGMENT CLOUD COVER ABOVE
       12000 FEET.
       "FAIR" INDICATES FEW OR NO CLOUDS BELOW 12,000 FEET WITH NO
       SIGNIFICANT WEATHER AND/OR OBSTRUCTIONS TO VISIBILITY.

  * THESE STATIONS DO NOT REPORT WEATHER SUCH AS RAIN...SNOW OR FOG.

NEZ001>004-019>022-054>056-261900-
NEBRASKA PANHANDLE

CITY           SKY/WX    TMP DP  RH WIND       PRES   REMARKS
SCOTTSBLUFF    CLOUDY    51  32  48 NW29G38   30.16S
6HR MIN TEMP:  27; 6HR MAX TEMP:  51;

ALLIANCE       CLOUDY    50  27  40 NW21G32   30.12S
6HR MIN TEMP:  25; 6HR MAX TEMP:  51;

CHADRON        CLOUDY    50  31  48 NW23G35   30.12F
6HR MIN TEMP:  29; 6HR MAX TEMP:  50;

KIMBALL        PTSUNNY   51  21  31 NW18G31   30.14F
SIDNEY         PTSUNNY   53  23  31 NW29G39   30.15R
6HR MIN TEMP:  22; 6HR MAX TEMP:  53;

$$

NEZ057>060-069>072-079>082-261900-
SOUTHWEST NEBRASKA

CITY           SKY/WX    TMP DP  RH WIND       PRES   REMARKS
NORTH PLATTE   PTSUNNY   54  27  35 W9        30.07F
6HR MIN TEMP:  17; 6HR MAX TEMP:  55;

IMPERIAL         N/A     57  25  29 NW24G33   30.10F
6HR MIN TEMP:  19; 6HR MAX TEMP:  57;

MCCOOK         CLOUDY    57  31  37 W16       30.10F
6HR MIN TEMP:  18; 6HR MAX TEMP:  58;

$$

NEZ005>010-023>029-035>040-094-261900-
NORTH CENTRAL NEBRASKA

CITY           SKY/WX    TMP DP  RH WIND       PRES   REMARKS
VALENTINE      PTSUNNY   48  27  44 E8        30.04F
6HR MIN TEMP:  22; 6HR MAX TEMP:  48;

BROKEN BOW     CLOUDY    46  26  45 S15G25    30.08F
6HR MIN TEMP:  14; 6HR MAX TEMP:  46;

ORD            CLOUDY    44  23  43 S12       30.09F
6HR MIN TEMP:  13; 6HR MAX TEMP:  44;

$$

NEZ041-046>049-061>064-073>077-083>087-261900-
SOUTH CENTRAL NEBRASKA

CITY           SKY/WX    TMP DP  RH WIND       PRES   REMARKS
GRAND ISLAND   CLOUDY    45  25  45 SW8       30.15F
6HR MIN TEMP:  19; 6HR MAX TEMP:  45;

HASTINGS       CLOUDY    46  27  47 S5        30.15F
6HR MIN TEMP:  22; 6HR MAX TEMP:  46;

HEBRON         MOSUNNY   45  24  43 CALM      30.18F
KEARNEY *      CLOUDY    46  25  42 S13       30.13F
$$

NEZ011>018-030>034-042>045-261900-
NORTHEAST NEBRASKA

CITY           SKY/WX    TMP DP  RH WIND       PRES   REMARKS
NORFOLK        PTSUNNY   43  23  45 VRB3      30.15F
6HR MIN TEMP:  24; 6HR MAX TEMP:  44;

ALBION         PTSUNNY   44  23  44 CALM      30.13F
BLAIR          SUNNY     45  23  42 NW12      30.16F
COLUMBUS *     MOSUNNY   43  21  42 CALM      30.18F
TEKAMAH        SUNNY     48  23  37 NW17G31   30.17F
6HR MIN TEMP:  25; 6HR MAX TEMP:  48;

$$

NEZ050>053-065>068-078-088>093-261900-
SOUTHEAST NEBRASKA

CITY           SKY/WX    TMP DP  RH WIND       PRES   REMARKS
LINCOLN        SUNNY     48  23  37 NW8       30.19F
6HR MIN TEMP:  20; 6HR MAX TEMP:  48;

OMAHA EPPLEY   MOSUNNY   46  23  40 NW5       30.17F
6HR MIN TEMP:  27; 6HR MAX TEMP:  46;

FALLS CITY     SUNNY     45  28  51 NW12      30.19F
6HR MIN TEMP:  28; 6HR MAX TEMP:  47;

PLATTSMOUTH    SUNNY     45  20  36 NW10      30.17F
$$

NEZ044-045-051>053-067-261900-
OMAHA AREA

CITY           SKY/WX    TMP DP  RH WIND       PRES   REMARKS
OMAHA EPPLEY   MOSUNNY   46  23  40 NW5       30.17F
6HR MIN TEMP:  27; 6HR MAX TEMP:  46;

BLAIR          SUNNY     45  23  42 NW12      30.16F
OFFUTT AFB     SUNNY     46  23  40 VRB5      30.17F
PLATTSMOUTH    SUNNY     45  20  36 NW10      30.17F
$$



USA.gov is the U.S. government's official web portal to all federal, state and local government web resources and services.